NOAA 17 DEB, 48724

Orbit data source: Space-Track

NOAA 17 DEB, 48724 is space debris in SSO originally from a launch on Mon, 24 Jun 2002 UTC launched from the Air Force Western Test Range (AFWTR). Debris objects in space refer to the collection of defunct objects orbiting the Earth. Examples of debris include non-operational satellites, rocket bodies, and fragments generated from explosions, collisions, or faulty payload assembly.

Loading next visibility...
Identifier
48724, 2002-032BH
Orbit
SSO
Country
Flag of USUS
Related business
Manufacturer
Unknown
Mission
Spacecraft
Bus & Motor
Unknown
Mass
Unknown
Launch date (UTC)
2002-06-24 (23 years ago)
Launch vehicle
Unknown
Launch site
Air Force Western Test Range (AFWTR)
Object type
Payload
Rocket body
Debris
Shape & HBR
Unknown shape, 0.1 m
Radar Cross Section
Small (<0.1 m²)

Expand to show TLE details & history
Last TLE update: 1 day ago

TLE from 1 day ago
0 NOAA 17 DEB
1 48724U 02032BH  25348.52338243  .00009418  00000-0  15175-2 0  9997
2 48724  98.7587  12.5842 0025409 157.4532 202.7795 14.71506414250608
Epoch: 2025-12-14T12:33Z
TLE epoch observation values (Epoch: 2025-12-14T12:33:40.241Z)
Latitude
-0.00006°
Longitude
100.73146°
Altitude
675.736 km
Speed
7.51 km/s
True Right ascension
00h 50m 20s
True Declination
0° 00' 00"
Sunlit
Object was in daylight at epoch
Visualization orbit readout
Latitude
Unknown
Longitude
Unknown
Altitude
Unknown
Speed
Unknown
Apparent Right ascension
Unknown
Apparent Declination
Unknown
Sunlit
N/A
Visualization observer readout
Local Sidereal Time
13:22:43
Azimuth
Unknown
Elevation
Unknown
Doppler factor
Unknown
Orbital elements
Apogee altitude
671.222 km
Perigee altitude
635.489 km
Semi-major axis
7,031.493 km
Eccentricity
0.00254
Inclination
98.7587°
RAAN
12.5842°
Arg. of periapsis
157.4532°
True anomaly
202.66709°
Mean anomaly
202.7795°
Eccentric anomaly
202.72326°
Mean motion
3.68105 °/min
Orbital period
97.8 mins
BSTAR
0.0015175
Loading maneuver chart data...
Computing Atmospheric mass density...
Loading historical data...
Loading historical data...
Loading historical data...
Loading historical data...
Loading historical data...
Loading historical data...
Loading historical data...

Documentation

Showing up to 5 results
|